Precipitable_Water
1.62 1.33 1.29 1.31 1.49 1.66 1.60 1.69 1.78 1.91 1.94 2.05 1.95 1.99 1.83 1.71 1.56 1.50 1.48 1.43 1.24 1.11 1.20 1.27 1.32 1.47 1.49 1.67 1.69 1.66 1.62 1.59 1.35 1.48 1.63 1.70 1.66 1.61 1.61 1.60 1.56 1.50 1.54
1.83 1.57 1.39 1.43 1.50 1.56 1.62 1.68 1.75 1.73 1.82 1.89 2.01 1.97 1.84 1.71 1.55 1.55 1.55 1.55 1.49 1.22 1.18 1.17 1.10 1.22 1.30 1.51 1.62 1.55 1.56 1.60 1.51 1.37 1.52 1.58 1.57 1.60 1.59 1.58 1.57 1.61 1.54
2.03 1.95 1.55 1.47 1.50 1.59 1.63 1.67 1.64 1.67 1.75 1.84 1.93 1.85 1.85 1.72 1.66 1.67 1.64 1.59 1.55 1.47 1.42 1.36 1.32 1.26 1.14 1.30 1.44 1.45 1.51 1.47 1.47 1.40 1.36 1.49 1.48 1.53 1.53 1.58 1.53 1.52 1.56
1.98 2.06 1.84 1.63 1.64 1.75 1.79 1.78 1.73 1.69 1.74 1.76 1.79 1.84 1.79 1.72 1.72 1.79 1.76 1.74 1.66 1.62 1.56 1.53 1.49 1.38 1.23 1.26 1.38 1.43 1.44 1.40 1.39 1.35 1.30 1.21 1.26 1.40 1.43 1.31 1.22 1.38 1.33
1.94 1.93 2.02 1.91 1.77 1.79 1.84 1.90 1.85 1.72 1.70 1.70 1.67 1.75 1.72 1.62 1.62 1.66 1.70 1.70 1.72 1.65 1.69 1.63 1.53 1.50 1.47 1.40 1.38 1.37 1.38 1.29 1.33 1.29 1.15 1.10 1.03 1.04 1.04 1.18 1.14 1.15 1.03
1.71 1.76 1.84 1.81 1.80 1.88 1.90 1.87 1.90 1.85 1.77 1.74 1.72 1.69 1.68 1.71 1.70 1.68 1.68 1.67 1.78 1.73 1.56 1.62 1.66 1.58 1.54 1.53 1.49 1.42 1.41 1.31 1.24 1.21 1.14 1.07 1.07 1.11 1.12 1.05 1.00 0.87 0.71
1.67 1.67 1.70 1.83 1.84 1.89 1.89 1.88 1.88 1.86 1.84 1.80 1.82 1.83 1.77 1.80 1.81 1.78 1.72 1.68 1.64 1.65 1.63 1.64 1.64 1.71 1.71 1.65 1.60 1.53 1.47 1.45 1.53 1.44 1.23 1.20 1.15 1.20 1.27 1.13 1.09 1.01 0.87
1.47 1.52 1.59 1.60 1.67 1.64 1.60 1.77 1.79 1.83 1.78 1.74 1.80 1.86 1.88 1.95 1.95 1.89 1.87 1.80 1.68 1.60 1.63 1.66 1.67 1.62 1.60 1.60 1.60 1.56 1.53 1.53 1.49 1.42 1.34 1.37 1.41 1.38 1.33 1.28 1.22 1.13 1.09
1.34 1.36 1.43 1.45 1.43 1.49 1.43 1.51 1.61 1.73 1.73 1.74 1.77 1.70 1.72 1.79 1.89 1.91 1.90 1.86 1.80 1.68 1.67 1.68 1.63 1.59 1.62 1.58 1.57 1.47 1.39 1.38 1.52 1.45 1.39 1.35 1.35 1.33 1.34 1.29 1.13 1.05 0.91
1.09 1.15 1.23 1.31 1.34 1.37 1.35 1.27 1.37 1.51 1.58 1.67 1.65 1.70 1.70 1.70 1.82 1.85 1.86 1.85 1.79 1.77 1.81 1.80 1.78 1.75 1.71 1.68 1.60 1.54 1.46 1.41 1.42 1.43 1.42 1.40 1.41 1.38 1.38 1.36 1.28 1.10 1.08
0.91 0.91 0.94 0.99 1.08 1.15 1.20 1.20 1.13 1.23 1.37 1.45 1.51 1.61 1.63 1.68 1.65 1.82 1.74 1.75 1.77 1.80 1.82 1.84 1.86 1.85 1.77 1.76 1.74 1.68 1.58 1.64 1.55 1.51 1.45 1.44 1.43 1.40 1.37 1.39 1.44 1.36 1.20
0.69 0.68 0.70 0.74 0.76 0.78 0.86 0.99 1.08 1.08 1.09 1.17 1.26 1.32 1.40 1.41 1.47 1.55 1.61 1.58 1.58 1.63 1.63 1.78 1.79 1.81 1.88 1.84 1.82 1.85 1.84 1.80 1.69 1.57 1.46 1.36 1.32 1.30 1.35 1.44 1.50 1.53 1.59
0.60 0.59 0.59 0.58 0.57 0.57 0.57 0.61 0.68 0.75 0.77 0.84 0.92 1.03 1.15 1.29 1.35 1.41 1.46 1.54 1.56 1.52 1.56 1.58 1.58 1.57 1.55 1.59 1.67 1.69 1.71 1.73 1.74 1.64 1.53 1.47 1.49 1.51 1.53 1.50 1.54 1.55 1.56
0.49 0.49 0.50 0.49 0.49 0.51 0.51 0.51 0.51 0.52 0.52 0.55 0.59 0.64 0.75 0.83 0.96 1.12 1.23 1.31 1.42 1.47 1.53 1.50 1.43 1.46 1.51 1.55 1.51 1.51 1.54 1.54 1.48 1.49 1.59 1.68 1.71 1.61 1.50 1.54 1.46 1.45 1.42
0.42 0.42 0.43 0.43 0.43 0.43 0.45 0.45 0.44 0.47 0.48 0.45 0.47 0.50 0.49 0.51 0.59 0.65 0.72 0.84 1.00 1.15 1.25 1.31 1.36 1.34 1.32 1.36 1.45 1.49 1.49 1.50 1.46 1.44 1.46 1.62 1.75 1.76 1.65 1.63 1.54 1.48 1.39
0.36 0.38 0.39 0.40 0.40 0.40 0.38 0.38 0.43 0.43 0.44 0.45 0.46 0.46 0.46 0.49 0.50 0.52 0.53 0.57 0.62 0.69 0.74 0.80 0.86 0.93 1.04 1.16 1.22 1.21 1.26 1.35 1.45 1.51 1.51 1.48 1.51 1.64 1.72 1.82 1.78 1.60 1.46
0.35 0.36 0.36 0.35 0.34 0.34 0.33 0.31 0.28 0.34 0.38 0.38 0.38 0.38 0.39 0.40 0.42 0.44 0.45 0.44 0.46 0.51 0.50 0.54 0.59 0.67 0.73 0.80 0.86 0.96 1.06 1.10 1.23 1.40 1.48 1.55 1.57 1.67 1.65 1.66 1.76 1.74 1.65
0.33 0.34 0.33 0.33 0.32 0.31 0.30 0.29 0.29 0.26 0.25 0.27 0.33 0.34 0.36 0.37 0.37 0.38 0.39 0.40 0.37 0.40 0.42 0.42 0.45 0.52 0.60 0.66 0.70 0.75 0.84 0.96 1.09 1.21 1.36 1.47 1.52 1.56 1.63 1.68 1.78 1.80 1.77
0.31 0.32 0.31 0.30 0.30 0.29 0.29 0.29 0.29 0.28 0.27 0.26 0.28 0.30 0.32 0.33 0.32 0.34 0.36 0.35 0.34 0.35 0.38 0.40 0.44 0.47 0.51 0.59 0.69 0.76 0.80 0.84 0.93 1.06 1.17 1.36 1.49 1.49 1.42 1.51 1.60 1.75 1.78
0.33 0.34 0.32 0.31 0.30 0.29 0.28 0.28 0.28 0.28 0.27 0.27 0.27 0.27 0.30 0.29 0.26 0.26 0.30 0.32 0.33 0.36 0.39 0.40 0.44 0.46 0.47 0.55 0.59 0.65 0.70 0.75 0.82 0.90 1.03 1.18 1.41 1.51 1.49 1.49 1.52 1.54 1.64
0.35 0.34 0.34 0.34 0.32 0.31 0.30 0.27 0.27 0.27 0.27 0.28 0.28 0.30 0.31 0.28 0.27 0.28 0.30 0.32 0.33 0.35 0.38 0.40 0.42 0.45 0.47 0.50 0.53 0.54 0.57 0.63 0.70 0.80 0.86 0.94 1.05 1.33 1.52 1.53 1.55 1.51 1.54
0.38 0.37 0.36 0.35 0.34 0.34 0.33 0.31 0.28 0.27 0.27 0.27 0.28 0.30 0.31 0.30 0.30 0.30 0.30 0.31 0.33 0.36 0.39 0.39 0.40 0.45 0.49 0.50 0.52 0.51 0.53 0.59 0.70 0.81 0.86 0.95 1.05 1.19 1.32 1.38 1.46 1.42 1.39
0.45 0.42 0.41 0.39 0.39 0.39 0.36 0.34 0.31 0.29 0.29 0.31 0.31 0.30 0.30 0.30 0.32 0.32 0.32 0.34 0.35 0.36 0.37 0.38 0.39 0.40 0.45 0.50 0.55 0.57 0.56 0.60 0.69 0.77 0.76 0.83 0.97 1.06 1.13 1.23 1.25 1.22 1.18
0.51 0.49 0.47 0.45 0.44 0.42 0.40 0.37 0.34 0.32 0.31 0.32 0.33 0.32 0.33 0.33 0.34 0.35 0.36 0.38 0.38 0.39 0.40 0.40 0.40 0.40 0.42 0.44 0.50 0.55 0.62 0.64 0.75 0.80 0.83 0.80 0.82 0.96 1.08 1.08 1.13 1.15 1.14
0.58 0.54 0.49 0.46 0.44 0.43 0.43 0.42 0.39 0.36 0.33 0.33 0.35 0.36 0.36 0.37 0.37 0.39 0.41 0.42 0.42 0.42 0.42 0.43 0.43 0.42 0.43 0.43 0.47 0.51 0.56 0.57 0.62 0.72 0.80 0.81 0.81 0.81 0.90 1.01 1.03 1.03 1.11
0.60 0.57 0.53 0.49 0.45 0.44 0.44 0.42 0.40 0.38 0.34 0.32 0.33 0.37 0.39 0.38 0.40 0.42 0.44 0.45 0.46 0.47 0.47 0.48 0.47 0.47 0.47 0.47 0.48 0.50 0.52 0.54 0.56 0.61 0.71 0.76 0.78 0.79 0.83 0.84 0.87 0.94 1.06
Wind_Speed
19 19 20 21 20 18 17 16 15 14 14 13 12 13 12 11 11 11 11 11 13 14 15 15 15 15 14 14 13 13 11 11 10 11 11 10 10 11 13 14 15 16 16
20 19 20 21 22 21 20 19 18 17 16 16 15 13 13 12 12 12 12 11 12 13 14 16 16 16 17 17 16 15 15 14 14 15 14 14 15 15 15 16 16 15 15
23 19 19 19 20 21 21 20 19 20 19 18 17 16 14 15 14 14 13 12 13 13 13 14 15 16 18 19 18 18 18 18 18 18 18 18 19 19 19 19 18 18 18
23 22 18 19 19 20 20 19 19 20 20 19 19 19 17 17 17 16 16 14 14 14 15 15 14 15 16 19 19 19 18 18 19 20 20 20 20 20 21 21 21 20 20
18 19 22 21 21 20 21 21 20 20 20 20 20 20 19 19 19 19 18 18 17 16 16 16 16 16 16 17 19 20 20 20 20 20 20 19 19 19 19 19 20 20 21
11 10 14 22 24 22 20 20 22 21 20 21 22 22 22 22 21 20 20 20 19 19 19 18 18 18 18 18 18 19 19 19 19 19 19 19 19 18 19 19 20 19 18
12 10 11 13 17 25 22 22 23 23 22 21 21 22 23 24 24 23 23 22 21 21 21 20 20 20 20 20 20 20 21 21 21 21 21 20 20 20 20 19 19 18 18
13 12 12 11 11 15 17 21 25 25 25 25 24 22 23 24 23 24 25 25 24 24 23 23 22 22 22 22 22 23 23 22 22 22 23 23 22 22 21 21 21 21 22
14 14 14 14 13 13 12 14 16 23 26 27 27 26 24 24 25 26 25 26 26 27 26 26 26 25 25 25 25 25 26 26 26 26 26 26 25 25 25 24 24 24 24
12 12 13 15 16 16 16 15 15 15 16 20 25 26 26 26 24 26 26 26 27 28 28 28 28 28 28 28 28 28 28 29 29 29 28 28 29 28 28 28 28 27 26
17 17 16 16 16 17 18 18 17 17 17 17 18 19 23 23 24 23 23 25 27 28 29 29 29 30 29 30 30 30 31 31 31 31 31 31 30 30 30 30 30 29 28
20 20 19 19 19 19 19 19 20 21 20 21 22 22 22 22 22 26 24 25 26 27 28 29 29 30 31 31 32 32 32 33 33 34 33 33 33 33 33 32 32 32 33
24 23 23 22 22 22 22 22 22 21 22 23 24 25 25 24 25 25 26 27 29 29 30 32 32 32 32 32 33 33 32 33 34 35 36 36 36 36 36 35 36 36 36
27 26 26 26 26 25 25 25 25 25 25 25 26 27 28 27 27 29 30 31 31 31 31 33 33 34 34 34 34 34 34 34 34 35 37 38 38 38 38 37 37 38 38
30 30 30 29 29 28 28 27 28 28 28 28 28 29 30 31 32 32 32 33 33 34 34 33 34 35 36 37 37 37 38 38 38 38 38 38 38 39 39 39 39 39 39
30 30 30 29 29 29 29 30 30 30 30 30 31 31 32 33 34 35 36 36 37 38 38 38 38 37 37 37 39 40 40 40 40 40 40 40 39 39 39 38 38 39 39
27 27 27 27 27 28 28 28 29 29 30 31 32 32 33 34 35 36 38 38 39 40 40 41 42 42 42 41 41 41 41 40 41 41 40 39 39 39 39 39 40 40 39
24 24 24 25 25 25 26 26 27 28 29 30 31 32 34 35 36 38 39 39 39 40 41 43 43 43 44 45 45 45 45 43 42 41 41 40 40 39 39 39 39 40 40
22 23 23 23 23 23 24 25 26 27 29 31 32 33 34 36 38 39 40 41 42 43 44 45 45 46 47 47 46 46 47 47 46 45 44 43 43 42 41 40 39 40 41
22 22 22 23 23 24 25 26 28 29 31 32 34 36 37 39 40 41 42 44 46 47 48 49 49 49 49 50 50 49 49 49 48 48 47 46 45 44 43 42 40 39 39
24 24 24 24 25 26 27 28 29 31 32 34 35 37 38 40 42 43 44 46 48 49 51 52 53 54 54 54 54 54 54 53 52 52 52 50 49 47 46 44 43 42 41
24 25 25 26 27 28 29 30 31 33 34 36 37 39 41 42 44 46 48 49 50 52 54 55 57 57 57 58 58 58 58 57 55 54 53 52 51 50 49 47 45 43 41
26 26 26 27 28 29 30 31 32 34 36 37 39 41 43 45 47 49 52 54 55 56 57 59 60 60 61 62 61 62 61 61 59 58 56 56 55 54 52 50 48 46 44
26 27 27 28 29 29 30 32 33 35 36 38 40 43 45 48 50 53 55 56 58 60 61 62 64 64 65 65 65 66 64 64 62 61 60 58 57 56 54 54 53 51 48
26 26 27 27 28 29 30 31 32 34 36 39 42 44 47 49 52 54 56 57 59 60 62 63 65 66 67 68 68 68 68 68 67 66 64 62 60 58 59 56 54 54 53
27 27 27 27 28 28 30 31 32 34 37 39 42 45 47 50 51 52 53 54 55 56 58 60 62 64 67 68 69 69 69 69 69 69 67 65 64 62 59 58 59 56 53
Wind_Direction
228 226 224 223 225 227 228 226 225 226 226 226 225 227 228 230 227 224 227 227 226 227 226 226 227 228 229 229 228 232 236 240 245 252 259 270 280 287 298 307 313 315 315
227 227 226 227 226 228 229 232 233 232 232 231 230 229 225 229 226 227 229 229 229 229 230 230 233 235 234 233 234 239 243 248 252 257 263 269 277 285 291 298 308 314 315
226 224 224 224 226 228 230 232 234 235 235 232 230 230 226 234 231 230 233 232 232 232 231 233 237 241 239 235 238 244 249 254 257 260 265 270 276 281 286 290 295 300 306
223 225 225 225 226 229 230 233 235 234 234 235 235 236 237 236 232 234 235 236 237 238 239 240 241 244 240 237 241 247 252 257 259 261 266 272 276 278 282 287 291 294 299
228 237 233 229 231 234 235 235 235 235 235 235 236 237 238 238 236 238 239 239 241 242 243 243 244 245 243 242 246 249 254 258 260 263 268 273 277 280 282 287 291 295 297
227 237 237 235 234 234 235 235 235 236 238 240 239 239 239 239 240 241 241 242 243 244 246 246 247 247 246 247 249 251 254 258 262 263 267 270 275 279 284 287 290 294 296
237 241 247 249 236 231 238 240 238 237 240 240 242 242 241 242 243 243 243 243 245 246 247 247 249 251 251 252 254 255 256 258 260 264 266 270 274 277 282 286 289 291 292
242 250 253 253 244 233 248 245 241 241 242 242 243 245 246 244 244 246 246 246 246 247 248 248 250 253 253 254 257 258 259 260 262 264 266 270 273 276 279 283 286 288 291
251 252 252 250 253 254 258 251 251 241 244 242 245 246 249 250 252 249 247 247 248 248 249 251 252 254 255 255 258 260 262 263 264 265 266 268 270 273 276 279 282 284 287
249 251 254 254 256 257 260 261 253 250 248 247 242 246 250 252 253 252 251 250 251 251 251 252 253 255 257 258 259 261 262 264 265 266 268 269 270 272 273 275 278 279 283
254 255 257 259 260 260 259 258 255 255 252 250 248 251 249 251 254 256 254 253 255 255 254 255 255 257 259 260 261 262 263 266 266 267 267 268 270 271 272 273 275 276 279
256 257 258 259 261 262 262 261 261 261 260 259 256 255 253 257 258 253 256 259 260 257 256 257 258 259 260 261 263 264 265 267 267 267 267 268 269 270 271 273 273 274 276
257 258 258 259 261 262 262 262 261 261 261 262 260 262 259 258 260 259 260 262 262 261 260 260 260 261 262 263 263 264 266 268 268 267 267 267 268 269 271 272 273 274 275
257 259 260 261 262 262 262 262 262 262 262 262 263 264 264 262 263 263 264 264 265 264 264 262 262 262 262 264 264 264 266 268 269 270 270 269 269 268 269 271 272 274 274
257 259 260 261 262 262 262 262 262 262 263 264 264 264 265 266 267 266 266 266 266 265 265 265 264 264 264 265 265 265 266 268 269 271 271 271 270 268 269 270 271 272 273
256 258 259 260 260 261 262 263 263 264 265 265 265 265 266 266 268 269 269 269 268 266 265 265 265 266 265 266 266 266 267 269 269 269 271 270 270 269 269 270 270 270 272
255 256 257 259 260 261 263 264 264 265 265 266 268 269 269 269 270 270 271 271 270 269 267 265 266 266 266 266 266 267 267 269 269 268 269 270 270 269 269 269 270 269 271
252 254 256 258 260 262 263 265 266 267 268 269 270 271 271 272 272 272 272 272 271 269 269 269 269 268 266 266 266 265 266 267 268 268 267 267 268 269 269 271 269 268 269
250 252 255 257 259 261 263 265 268 270 271 273 274 275 275 276 276 274 273 272 271 271 270 270 269 268 268 267 266 266 265 265 266 267 267 267 267 267 269 270 271 269 269
250 253 255 258 261 264 266 269 272 274 275 276 277 278 279 280 279 277 276 274 273 272 270 270 269 269 268 267 267 266 266 265 264 264 265 265 265 266 266 268 269 270 271
252 254 257 260 263 266 269 272 275 277 279 279 280 280 281 281 280 280 279 277 276 274 273 271 270 269 268 267 266 265 265 265 265 264 263 263 264 263 264 265 267 268 270
254 257 260 262 265 269 273 276 278 280 281 282 283 284 284 283 282 281 280 279 277 276 274 273 271 270 268 267 266 265 264 263 262 262 262 262 262 262 262 262 264 265 267
256 259 263 265 268 272 275 278 281 283 284 286 286 286 287 286 285 285 283 281 279 277 275 274 272 271 269 267 266 263 262 261 261 261 261 260 259 259 259 260 260 263 264
258 261 265 269 271 273 276 279 283 285 287 289 290 290 289 289 288 287 285 283 281 279 277 274 273 271 269 267 265 263 262 260 259 258 258 258 257 257 257 257 257 259 261
259 264 268 271 273 275 278 281 284 288 290 292 293 294 294 294 292 289 287 285 283 280 278 276 274 271 269 267 265 262 260 259 257 257 256 255 255 255 255 256 256 256 258
260 265 269 272 276 278 281 283 287 291 295 296 297 298 298 298 296 293 290 288 286 284 281 279 276 273 270 267 264 262 260 258 256 254 253 253 252 253 254 254 254 254 256